Location: Dover
(39.1580°N, 75.5250°W)
Time: 06:47:24
(UTC-04:00)

ISS - All Passes

Search period start: 23 May 2017 00:00
Search period end: 02 June 2017 00:00
Orbit: 402 x 409 km, 51.6° (Epoch: 23 May)

Date Brightness Start Highest point End Pass type
(mag) Time Alt. Az. Time Alt. Az. Time Alt. Az.
23 May - 03:04:29 10° NNW 03:06:12 13° NNE 03:07:55 10° NE visible
23 May - 04:40:04 10° NW 04:43:18 53° NE 04:46:30 10° ESE visible
23 May - 06:17:33 10° W 06:19:28 15° SW 06:21:24 10° SSW daylight
23 May - 21:19:30 10° SSW 21:22:23 29° SE 21:25:17 10° ENE visible
23 May - 22:55:51 10° W 22:58:50 31° NNW 23:01:49 10° NE visible
24 May - 00:35:09 10° NNW 00:36:08 11° N 00:37:08 10° N visible
24 May - 02:12:54 10° N 02:13:51 11° N 02:14:49 10° NNE visible
24 May - 03:48:12 10° NW 03:51:10 30° NNE 03:54:07 10° E visible
24 May - 05:24:45 10° WNW 05:27:37 28° SW 05:30:29 10° SSE daylight
24 May - 20:28:33 10° SSE 20:30:31 15° SE 20:32:29 10° E daylight
24 May - 22:03:28 10° WSW 22:06:41 53° NW 22:09:56 10° NE visible
24 May - 23:42:02 10° NW 23:43:47 14° NNW 23:45:32 10° NNE visible
25 May - 02:56:25 10° NNW 02:58:57 20° NNE 03:01:30 10° ENE visible
25 May - 04:32:27 10° WNW 04:35:41 59° SW 04:38:53 10° SE visible
25 May - 21:11:21 10° SW 21:14:38 78° SE 21:17:56 10° NE visible
25 May - 22:49:06 10° WNW 22:51:28 18° NNW 22:53:49 10° NNE visible
26 May - 02:04:41 10° NNW 02:06:39 15° NNE 02:08:38 10° NE visible
26 May - 03:40:23 10° NW 03:43:39 68° NE 03:46:54 10° ESE visible
26 May - 05:18:35 10° WSW 05:19:43 11° SW 05:20:51 10° SSW daylight
26 May - 20:19:35 10° SSW 20:22:38 37° SE 20:25:43 10° ENE daylight
26 May - 21:56:22 10° W 21:59:12 26° NNW 22:02:02 10° NNE visible
26 May - 23:35:57 10° NNW 23:36:35 10° N 23:37:13 10° N visible
27 May - 01:13:00 10° N 01:14:17 12° NNE 01:15:33 10° NE visible
27 May - 02:48:26 10° NW 02:51:31 37° NNE 02:54:35 10° ESE visible
27 May - 04:25:14 10° W 04:27:51 22° SW 04:30:28 10° S visible
27 May - 19:28:18 10° S 19:30:43 19° SE 19:33:08 10° E daylight
27 May - 21:03:50 10° WSW 21:06:59 42° NNW 21:10:10 10° NE visible
27 May - 22:42:40 10° NW 22:44:10 12° NNW 22:45:39 10° NNE visible
28 May - 00:21:37 10° N 00:21:51 10° N 00:22:06 10° N visible
28 May - 01:56:35 10° NNW 01:59:18 23° NNE 02:02:00 10° E visible
28 May - 03:32:46 10° WNW 03:35:55 44° SW 03:39:02 10° SSE night (unlit)
28 May - 20:11:34 10° SW 20:14:52 81° NW 20:18:10 10° NE daylight
28 May - 21:49:38 10° WNW 21:51:47 16° NNW 21:53:56 10° NNE visible
29 May - 01:04:47 10° NNW 01:06:59 17° NNE 01:09:11 10° ENE visible
29 May - 02:40:35 10° NW 02:43:53 88° NE 02:47:08 10° SE visible
29 May - 19:19:37 10° SSW 19:22:48 49° SE 19:26:00 10° ENE daylight
29 May - 20:56:47 10° W 20:59:27 22° NNW 21:02:08 10° NNE visible
30 May - 00:13:02 10° NNW 00:14:36 13° NNE 00:16:09 10° NE visible
30 May - 01:48:33 10° NW 01:51:45 45° NE 01:54:54 10° ESE visible
30 May - 03:25:43 10° W 03:27:59 17° SW 03:30:13 10° S night (unlit)
30 May - 18:28:04 10° S 18:30:49 24° SE 18:33:33 10° ENE daylight
30 May - 20:04:08 10° W 20:07:11 35° NNW 20:10:15 10° NE daylight
30 May - 21:43:14 10° NNW 21:44:26 12° NNW 21:45:39 10° N visible
30 May - 23:21:24 10° N 23:22:08 11° N 23:22:54 10° NNE visible
31 May - 00:56:38 10° NNW 00:59:30 27° NNE 01:02:22 10° E visible
31 May - 02:33:01 10° WNW 02:36:01 34° SW 02:39:01 10° SSE night (unlit)
31 May - 17:37:22 10° SSE 17:38:53 13° SE 17:40:24 10° E daylight
31 May - 19:11:43 10° WSW 19:14:59 63° NW 19:18:16 10° NE daylight
31 May - 20:50:05 10° NW 20:52:00 14° NNW 20:53:56 10° NNE visible
01 Jun - 00:04:46 10° NNW 00:07:11 19° NNE 00:09:36 10° ENE visible
01 Jun - 01:40:42 10° NW 01:43:59 71° SW 01:47:13 10° SE visible
01 Jun - 18:19:36 10° SW 18:22:51 65° SE 18:26:07 10° ENE daylight
01 Jun - 19:57:06 10° WNW 19:59:36 20° NNW 20:02:07 10° NNE daylight
01 Jun - 23:12:58 10° NNW 23:14:48 14° NNE 23:16:36 10° NE visible
